Location: Ravensburg
(47.7866°N, 9.6124°E)
Time: 11:28:07
(UTC+02:00)

STARS - Pass Details

Date: 20 March 2026
Orbit: 575 x 588 km, 98.2° (Epoch: 18 April)

Event Time Altitude Azimuth Distance (km) Brightness Sun altitude
Rises 03:42:39 0° 0° (N) 2,800 ? -26.7°
Reaches altitude 10° 03:45:18 10° 342° (NNW) 1,896 ? -26.3°
Enters shadow 03:45:51 12° 336° (NNW) 1,742 ? -26.2°
